Change the Weather History Date:

Tuesday, February 25, 2014

  Actual Average Record
Temperature  
Mean Temperature 59 °F -  
Max Temperature 68 °F 60 °F 69 °F (2015)
Min Temperature 50 °F 43 °F 37 °F (1997)
Degree Days  
Heating Degree Days 6    
Growing Degree Days 9 (Base 50)    
Moisture  
Dew Point 50 °F    
Average Humidity 73    
Maximum Humidity 89    
Minimum Humidity 54    
Precipitation  
Precipitation 0.00 in - - ()
Sea Level Pressure  
Sea Level Pressure 30.01 in    
Wind  
Wind Speed 5 mph (NE)    
Max Wind Speed 14 mph    
Max Gust Speed 20 mph    
Visibility 5 miles    
Events Fog    
Averages and records for this station are not official NWS values.
T = Trace of Precipitation, MM = Missing Value Source: NWS Daily Summary

Daily Weather History Graph

Daily Weather History Graph

Search for Another Location

Airport or City:

Trip Planner

Search our weather history database for the weather conditions in past years. The results will help you decide how hot, cold, wet, or windy it might be!

Date:

Astronomy

Feb. 25, 2014 Rise Set
Actual Time 6:30 AM PST 5:49 PM PST
Civil Twilight 6:04 AM PST 6:14 PM PST
Nautical Twilight 5:35 AM PST 6:43 PM PST
Astronomical Twilight 5:06 AM PST 7:12 PM PST
Moon 3:21 AM PST (2/25) 2:07 PM PST (2/25)
Length of Visible Light 12h 09m
Length of Day
11h 19m
Waning Crescent, 17% of the Moon is Illuminated
Feb 25
Waning Crescent
Mar 1
New
Mar 8
First Quarter
Mar 16
Full
Mar 23
Last Quarter

Hourly Weather History & Observations

Time (PST) Temp. Dew Point Humidity Pressure Visibility Wind Dir Wind Speed Gust Speed Precip Events Conditions
12:54 AM 59.0 °F 50.0 °F 72% 30.02 in - NE 3.5 mph - N/A   Overcast
1:54 AM 57.0 °F 51.1 °F 81% 30.01 in - Calm Calm - N/A   Overcast
2:54 AM 57.0 °F 48.9 °F 74% 29.99 in - North 3.5 mph - N/A   Mostly Cloudy
3:15 AM 54.0 °F 48.0 °F 80% 29.98 in - NE 4.6 mph - N/A   Partly Cloudy
3:54 AM 53.1 °F 48.0 °F 83% 29.98 in - NNE 4.6 mph - N/A   Scattered Clouds
4:18 AM 53.1 °F 48.0 °F 83% 29.97 in - NNE 3.5 mph - N/A   Mostly Cloudy
4:54 AM 52.0 °F 48.0 °F 86% 29.98 in - NNE 3.5 mph - N/A   Mostly Cloudy
5:54 AM 52.0 °F 48.0 °F 86% 30.00 in 7.0 mi NNE 3.5 mph - N/A   Overcast
6:37 AM 50.0 °F 46.9 °F 89% 30.00 in - North 6.9 mph - N/A   Overcast
6:39 AM 50.0 °F 46.9 °F 89% 30.00 in 2.0 mi North 6.9 mph - N/A   Mostly Cloudy
6:42 AM 50.0 °F 46.9 °F 89% 30.00 in 0.2 mi North 5.8 mph - N/A Fog Fog
6:54 AM 50.0 °F 46.9 °F 89% 30.01 in 0.2 mi NNE 6.9 mph - N/A Fog Fog
7:54 AM 52.0 °F 48.9 °F 89% 30.03 in 0.2 mi NNE 4.6 mph - N/A Fog Fog
8:06 AM 54.0 °F 50.0 °F 86% 30.03 in 1.0 mi NNE 3.5 mph - N/A   Mostly Cloudy
8:29 AM 57.0 °F 50.0 °F 77% 30.03 in 2.0 mi NNE 6.9 mph - N/A   Haze
8:54 AM 60.1 °F 50.0 °F 69% 30.04 in 4.0 mi NNE 5.8 mph - N/A   Haze
9:29 AM 64.9 °F 50.0 °F 58% 30.02 in 4.0 mi Variable 5.8 mph - N/A   Haze
9:54 AM 64.9 °F 50.0 °F 58% 30.02 in 4.0 mi Variable 4.6 mph - N/A   Haze
10:54 AM 66.9 °F 50.0 °F 54% 30.02 in 7.0 mi SSE 10.4 mph - N/A   Partly Cloudy
11:54 AM 68.0 °F 51.1 °F 55% 30.01 in 7.0 mi South 13.8 mph - N/A   Partly Cloudy
12:54 PM 66.9 °F 51.1 °F 57% 29.99 in 7.0 mi South 11.5 mph - N/A   Scattered Clouds
1:54 PM 68.0 °F 51.1 °F 55% 29.99 in 7.0 mi SSW 12.7 mph 19.6 mph N/A   Scattered Clouds
2:54 PM 64.9 °F 51.1 °F 61% 29.97 in 7.0 mi SSW 10.4 mph - N/A   Scattered Clouds
3:54 PM 66.0 °F 51.1 °F 59% 29.97 in 7.0 mi SSW 10.4 mph - N/A   Scattered Clouds
4:54 PM 62.1 °F 51.1 °F 67% 29.99 in 7.0 mi SSW 11.5 mph - N/A   Mostly Cloudy
5:54 PM 60.1 °F 51.1 °F 72% 30.00 in 7.0 mi SW 9.2 mph - N/A   Mostly Cloudy
6:54 PM 60.1 °F 51.1 °F 72% 30.02 in 7.0 mi WSW 8.1 mph - N/A   Overcast
7:54 PM 60.1 °F 48.9 °F 67% 30.04 in 7.0 mi Calm Calm - N/A   Overcast
8:54 PM 60.1 °F 50.0 °F 69% 30.03 in 7.0 mi SSE 4.6 mph - N/A   Overcast
9:54 PM 59.0 °F 50.0 °F 72% 30.04 in 7.0 mi South 5.8 mph - N/A   Overcast
10:54 PM 57.9 °F 50.0 °F 75% 30.04 in 7.0 mi Calm Calm - N/A   Scattered Clouds
11:54 PM 60.1 °F 51.1 °F 72% 30.05 in - South 4.6 mph - N/A   Overcast